Location: Clarion
(42.7316°N, 93.7330°W)
Time: 22:15:32
(UTC+00:00)

ERS-1 Rocket - Pass Details

Date: 22 April 2026
Orbit: 747 x 750 km, 98.2° (Epoch: 12 May)

Event Time Altitude Azimuth Distance (km) Brightness Sun altitude
Exits shadow 02:15:34 12° 154° (SSE) 2,095 4.8 -12.8°
Maximum altitude 02:20:04 66° 73° (ENE) 817 3.0 -13.5°
Drops below altitude 10° 02:25:02 10° 352° (N) 2,280 6.0 -14.3°
Sets 02:27:21 0° 350° (N) 3,209 6.9 -14.6°
